Regional Weather Roundup
Issued by NWS

Home | Current Version | Previous Version | Text Only | Print | Product List | Glossary Off
Versions: 1 2 3 4 5 6 7 8 9 10 11 12 13 14 15 16 17 18 19 20 21 22 23 24 25 26 27 28 29 30 31 32 33 34 35 36 37 38 39 40 41 42 43 44 45 46 47 48 49 50

000
ASUS45 KBOU 280107
RWRCO

WEATHER ROUNDUP FOR COLORADO
NATIONAL WEATHER SERVICE DENVER/BOULDER CO
700 PM MDT WED APR 27 2016

NOTE: "FAIR" INDICATES FEW OR NO CLOUDS BELOW 12000 FEET WITH NO
SIGNIFICANT WEATHER AND/OR OBSTRUCTIONS TO VISIBILITY.

COZ001>005-013-030-031-280200-
...NORTHWEST COLORADO...

CITY           SKY/WX    TMP DP  RH WIND       PRES   REMARKS
CRAIG          FAIR      49  31  49 N8        29.81S
HAYDEN         FAIR      45  30  57 SW6       29.81F
MEEKER         CLOUDY    45  35  68 N9        29.82R
MOUNT WERNER   NOT AVBL
STEAMBOAT SPGS FAIR      42  32  67 S3        29.81F
WALDEN         FAIR      34  28  80 N12       29.86S WCI  25
$$

COZ006>008-011-280200-
...WEST CENTRAL VALLEYS...

CITY           SKY/WX    TMP DP  RH WIND       PRES   REMARKS
GRAND JUNCTION FAIR      56  35  45 SE6       29.74F
MONTROSE       CLOUDY    54  30  40 CALM      29.80S
EAGLE          FAIR      52  27  37 SW20      29.80S
RIFLE          PTSUNNY   53  33  46 NW8       29.78S
DELTA          NOT AVBL
NUCLA          NOT AVBL
$$

COZ017>023-064>068-280200-
...SOUTHWEST COLORADO...

CITY           SKY/WX    TMP DP  RH WIND       PRES   REMARKS
DURANGO        CLOUDY    53  24  32 W13       29.80S
CORTEZ         CLOUDY    55  27  34 CALM      29.79R
PAGOSA SPRINGS CLOUDY    50  21  32 SW12G20   29.85R
TELLURIDE      LGT SNOW  36  32  87 CALM      29.91S
WOLF CREEK PAS NOT AVBL
$$

COZ009-010-012-014-032>034-037-058>063-280200-
...CENTRAL COLORADO...

CITY           SKY/WX    TMP DP  RH WIND       PRES   REMARKS
ASPEN          FAIR      41  31  67 CALM      29.83F
BUENA VISTA    MOCLDY    48  19  31 W17G23    29.80S
COPPER MTN     NOT AVBL
BERTHOUD PASS  CLOUDY    19   9  63 NW9G23    29.92R WCI   9
COTTONWOOD PAS FAIR      43  21  42 NW5       29.87S
GUNNISON       FAIR      48  21  34 SW10      29.83S
KREMMLING      FAIR      43  28  56 N8        29.84S
LEADVILLE      FAIR      33  21  61 NW8       29.87S WCI  26
MONARCH PASS   FAIR      28  18  64 W17G32    30.02S WCI  16
SALIDA         MOCLDY    56  18  22 W15       29.86R
SUNLIGHT       PTSUNNY   32  28  86 CALM      29.94S
WILKERSON PASS CLOUDY    32  16  51 W5        29.93S WCI  27
$$

COZ069>075-280200-
...SAN LUIS VALLEY/SANGRE DE CRISTO MOUNTAINS...

CITY           SKY/WX    TMP DP  RH WIND       PRES   REMARKS
ALAMOSA        CLOUDY    54  22  28 W18G24    29.77R
LA VETA PASS   CLOUDY    36  27  69 NE13      29.90S
SAGUACHE       CLOUDY    46  27  46 NW9G17    29.82R
$$

COZ035-036-038>040-280200-
...NORTHERN COLORADO FRONT RANGE...

CITY           SKY/WX    TMP DP  RH WIND       PRES   REMARKS
DENVER INTL AP FAIR      50  29  44 NE13      29.78F
DMNS CITY PARK   N/A     51  30  44 NE9       29.79R
AURORA         FAIR      49  31  49 NE8       29.80R
FRONT RANGE AP PTCLDY    50  28  43 N16       29.80
ERIE MUNI ARPT MOCLDY    53  30  42 E7        29.78S
BOULDER MUN AP FAIR      50  32  50 NE9       29.78R
CENTENNIAL     MOCLDY    49  30  48 E13       29.79R
BROOMFIELD     MOCLDY    50  32  50 E9        29.80R
FORT COLLINS   MOCLDY    48  30  49 N14       29.80R
LONGMONT       FAIR      52  35  51 E6        29.80R
$$

COZ041-046-047-076>085-087-088-280200-
...PIKES PEAK/PALMER DIVIDE AND SOUTHERN FOOTHILLS...

CITY           SKY/WX    TMP DP  RH WIND       PRES   REMARKS
COLO. SPRINGS  MOCLDY    49  31  49 E8        29.80S
A. F. ACADEMY  FAIR      46  32  57 E9        29.79S
SCHRIEVER AFB  NOT AVBL
ELLICOTT       NOT AVBL
FALCON         MOCLDY    46  32  58 NE5       29.82F
FORT CARSON    MOCLDY    50  31  48 E8        29.78R
LIMON          MOCLDY    47  28  47 N12       29.80S
MONUMENT HILL  CLOUDY    37  32  81 SE8       29.84R
TRINIDAD       CLOUDY    56  29  35 E22       29.75R
$$

COZ042>045-048>051-090-091-280200-
...NORTHEAST COLORADO...

CITY           SKY/WX    TMP DP  RH WIND       PRES   REMARKS
GREELEY ARPT   MOCLDY    48  28  46 N18       29.80R
AKRON          FAIR      47  26  44 N22       29.79R
BURLINGTON     FAIR      52  28  39 N15       29.78R
WRAY           NOT AVBL
STERLING       FAIR      46  30  53 N15G28    29.79R
HOLYOKE        NOT AVBL
FORT MORGAN    FAIR      48  26  40 N21       29.80S
$$

COZ086-089-092>099-280200-
...SOUTHEAST COLORADO...

CITY           SKY/WX    TMP DP  RH WIND       PRES   REMARKS
PUEBLO         FAIR      61  26  26 SE12      29.74R
LA JUNTA       FAIR      61  26  26 E10       29.74S
LAMAR          FAIR      62  28  27 N8        29.74R
SPRINGFIELD      N/A     58  30  34 SE6       29.77R
$$



USA.gov is the U.S. government's official web portal to all federal, state and local government web resources and services.